Location: Cottbus
(51.7000°N, 14.3000°E)
Time: 01:51:08
(UTC+01:00)

ISS - Visible Passes

Search period start: 04 December 2021 00:00
Search period end: 14 December 2021 00:00
Orbit: 417 x 423 km, 51.6° (Epoch: 03 December)

Date Brightness Start Highest point End Pass type
(mag) Time Alt. Az. Time Alt. Az. Time Alt. Az.
04 Dec -2.3 18:00:23 10° W 18:03:32 36° SSW 18:05:02 23° SSE visible
05 Dec -2.8 17:13:02 10° W 17:16:20 47° SSW 17:19:37 10° SE visible
05 Dec -0.8 18:50:53 10° WSW 18:52:34 13° SW 18:53:12 13° SSW visible
06 Dec -1.1 18:03:05 10° W 18:05:33 19° SW 18:08:00 10° S visible
07 Dec -1.5 17:15:38 10° W 17:18:32 26° SSW 17:21:25 10° SSE visible
08 Dec -1.9 16:28:22 10° W 16:31:31 35° SSW 16:34:39 10° SE visible
09 Dec -0.5 17:19:08 10° WSW 17:20:45 13° SW 17:22:22 10° SSW visible
10 Dec -0.6 16:31:30 10° W 16:33:56 18° SW 16:36:21 10° S visible
